Temperature
7 8 8 8 9 9 10 10 10 11 11 11 11 11 12 11 11 11 11 11 11 11 11 11 11 11 12 12 12 12 13 13 13 13 13 13 13 13 13 13 13 13 13 13
8 7 8 8 9 9 9 9 10 10 10 10 10 11 11 11 10 10 10 10 10 10 10 10 10 11 11 12 12 12 12 12 12 13 13 13 13 13 13 13 12 12 12 12
7 7 8 8 8 8 8 9 9 9 10 10 10 11 11 11 10 10 9 9 9 9 9 9 10 10 11 11 12 12 12 12 12 12 12 12 12 12 12 12 12 12 12 12
7 7 7 8 8 8 9 9 9 9 9 10 10 11 12 11 11 11 10 9 9 9 9 9 9 10 10 11 11 11 12 12 12 12 12 12 12 12 12 12 12 12 12 12
6 6 7 7 7 8 8 8 8 9 9 9 10 10 12 11 11 11 10 9 9 8 8 8 8 9 10 10 11 11 11 11 11 11 12 12 11 12 12 12 12 12 12 11
6 6 6 6 7 7 7 8 8 9 9 9 10 10 11 11 11 11 10 9 8 8 8 8 8 9 9 9 10 11 11 11 11 11 11 11 11 11 11 11 11 11 11 11
6 6 6 6 7 7 7 8 8 9 9 10 10 10 10 10 9 9 9 8 8 7 7 8 8 8 9 9 10 10 10 10 10 10 10 11 11 11 11 11 11 11 11 11
6 6 6 6 6 6 6 7 8 9 9 10 9 9 10 9 8 8 7 7 7 7 7 7 7 8 8 9 9 10 10 10 10 10 10 10 10 10 10 10 10 10 10 10
6 6 6 5 6 6 6 7 7 7 7 8 9 9 9 8 8 7 7 7 6 6 6 7 7 7 8 8 9 9 9 9 9 9 9 9 9 10 10 10 10 10 10 10
4 5 5 5 6 6 6 6 6 7 7 8 9 9 9 8 7 7 7 6 5 5 5 6 6 7 7 8 8 8 9 9 9 9 9 9 9 9 9 9 9 9 9 9
4 4 5 5 5 5 5 5 6 6 7 8 9 9 8 7 7 6 6 5 5 4 5 5 6 6 7 7 8 8 8 8 8 8 8 8 8 8 8 8 9 9 9 8
4 4 4 5 5 5 5 5 5 6 6 7 8 8 6 6 6 5 5 4 4 4 4 4 5 6 6 7 7 7 7 8 8 8 8 8 8 8 8 8 8 8 8 8
3 3 5 5 5 4 4 4 4 5 5 6 7 8 6 5 5 4 4 4 3 3 4 4 4 5 5 6 6 7 7 7 7 7 7 7 7 7 7 7 7 7 7 7
3 3 4 5 5 4 3 3 3 4 5 6 6 6 6 5 4 4 3 3 3 3 3 3 4 4 4 5 5 6 6 6 6 6 7 7 7 7 7 7 7 7 6 6
3 2 2 3 3 3 3 3 3 3 4 5 5 5 5 4 3 3 2 2 2 2 2 2 2 3 3 4 4 5 5 5 6 6 6 6 6 6 6 6 6 6 6 6
1 2 1 2 2 2 2 2 3 3 3 3 4 4 4 3 2 2 1 1 1 1 1 1 2 2 3 3 4 4 4 5 5 5 5 5 5 5 5 5 5 5 5 5
1 1 2 3 2 2 3 3 2 2 2 3 3 4 2 2 1 1 0 0 0 0 0 0 1 2 2 2 3 3 4 4 4 4 4 5 5 5 5 5 5 4 4 4
0 1 1 2 2 3 4 2 1 2 2 2 2 2 1 1 0 0 -0 -0 -1 -0 -0 0 1 1 2 2 2 3 3 3 4 4 4 4 4 4 4 4 4 4 3 3
0 1 1 2 2 4 3 2 1 1 2 1 1 1 1 -0 0 1 -0 -1 -1 -1 -1 -0 0 1 1 1 2 2 2 3 3 3 3 3 3 3 3 3 3 3 3 3
-1 -0 1 1 2 3 4 1 -0 1 2 1 0 0 -0 -0 2 2 -0 -1 -1 -1 -1 -0 0 0 0 1 1 1 2 2 2 2 2 2 2 2 2 2 2 2 2 2
-1 -1 -0 1 2 3 2 -0 -0 2 3 0 -1 -1 -1 -1 -0 -1 -1 -1 -2 -2 -1 -1 -0 -0 -0 0 0 1 1 1 1 1 1 1 1 1 1 1 1 1 1 1
0 0 -1 0 1 2 0 -1 1 2 -0 -1 -1 -1 -2 -2 -2 -2 -2 -2 -2 -2 -2 -1 -1 -1 -1 -0 -0 0 0 0 0 1 1 1 1 1 1 1 1 1 0 0
-1 0 1 1 2 1 -1 -1 -1 -1 -1 -1 -2 -2 -2 -2 -3 -3 -3 -3 -2 -2 -2 -2 -2 -1 -1 -1 -1 -1 -1 -0 -0 -0 -0 -0 -0 -0 -0 -0 -0 -0 -0 -0
-1 -3 -2 -1 -0 -1 -1 -1 -1 -1 -2 -2 -2 -2 -2 -3 -3 -3 -3 -3 -3 -3 -3 -3 -2 -2 -2 -2 -2 -1 -1 -1 -1 -1 -1 -1 -1 -1 -1 -1 -1 -1 -1 -1
-0 -3 -2 -2 -1 -1 -1 -1 -1 -2 -2 -2 -3 -3 -3 -3 -3 -3 -3 -3 -3 -3 -3 -3 -3 -3 -3 -3 -3 -2 -2 -2 -2 -2 -2 -2 -2 -2 -2 -1 -1 -1 -1 -1
-2 -2 -1 0 -0 -1 -0 -1 -1 -2 -2 -3 -3 -3 -3 -3 -3 -3 -4 -4 -4 -4 -3 -4 -4 -4 -3 -3 -3 -3 -3 -3 -3 -3 -2 -2 -2 -2 -2 -2 -2 -2 -2 -2
Wind_Speed
2 2 2 3 5 5 6 6 6 6 4 4 6 7 7 4 3 4 4 4 4 5 5 4 4 4 5 5 6 7 8 9 8 7 8 7 8 7 7 7 9 10 10 10
3 1 3 3 3 4 6 6 6 4 3 4 6 8 6 4 4 4 4 4 4 4 4 3 3 3 4 4 5 6 7 8 9 8 8 7 7 6 6 6 8 10 10 10
2 1 2 2 2 4 5 7 6 5 5 4 5 7 6 5 4 4 4 4 4 4 4 4 3 3 4 4 5 5 7 7 8 9 7 6 5 5 5 7 6 7 9 10
0 2 2 3 3 3 5 4 6 6 5 4 5 6 7 6 5 5 5 4 4 4 4 4 4 4 4 5 5 5 6 7 7 8 9 11 9 8 7 7 7 8 9 9
0 1 2 2 3 3 4 4 5 6 6 6 6 6 6 5 7 6 6 5 5 5 4 4 4 4 5 5 4 5 5 6 6 8 9 10 10 8 7 7 8 8 8 8
1 2 2 3 4 2 2 2 2 4 5 6 8 7 7 6 7 7 5 5 5 6 6 5 5 4 4 4 4 4 5 5 6 7 8 9 10 9 9 8 8 7 6 7
2 2 2 2 2 1 1 1 2 3 4 6 5 6 6 3 4 5 5 6 5 6 5 5 5 5 5 5 4 4 5 5 5 6 7 8 9 10 11 9 9 8 7 6
2 2 2 2 2 2 2 2 2 3 4 4 4 7 3 2 3 4 4 5 6 7 6 6 6 5 5 5 5 4 5 5 5 6 6 6 7 6 7 9 8 8 7 6
1 1 2 3 2 2 1 2 2 2 4 4 5 4 4 1 3 4 5 6 7 8 8 7 6 6 5 5 5 5 5 5 5 6 5 6 6 6 6 7 7 6 6 6
1 2 3 3 1 1 1 1 2 3 3 5 5 6 5 3 4 6 7 7 8 9 9 7 6 6 5 4 4 4 5 5 5 5 5 4 5 5 5 5 6 6 6 6
1 1 2 1 1 2 1 1 2 2 3 4 5 4 1 3 4 5 7 8 8 9 9 8 7 6 5 4 2 2 3 3 4 5 5 4 5 4 4 5 6 6 6 6
1 1 2 3 2 3 3 2 3 3 3 3 5 4 2 2 4 5 7 8 8 8 8 8 7 6 5 4 3 2 2 2 3 3 4 4 4 4 4 4 5 6 6 6
0 1 2 1 2 1 2 2 2 3 3 5 6 5 1 5 7 8 9 9 9 9 8 8 7 7 6 5 4 3 2 1 1 2 4 4 4 4 5 5 4 4 5 6
1 2 4 5 4 3 5 6 5 5 5 7 9 11 9 9 9 10 10 10 10 9 9 9 8 7 7 6 5 4 3 2 0 1 3 4 4 4 4 5 5 4 5 5
1 3 4 7 7 7 9 10 9 9 10 9 10 12 12 10 9 10 9 10 10 10 10 9 9 8 8 7 7 5 4 2 1 1 2 2 3 3 4 4 4 4 4 4
0 2 3 6 7 7 9 10 10 10 10 11 12 12 8 7 7 8 9 9 9 10 10 10 9 9 8 8 7 6 5 3 1 1 1 2 3 3 3 3 4 4 4 4
2 2 2 4 5 6 7 6 6 6 7 8 9 7 6 6 7 8 8 8 9 9 9 9 9 8 8 7 6 5 5 3 1 1 1 2 3 3 3 3 3 4 4 4
4 3 2 3 3 5 2 1 3 6 7 7 8 8 7 7 8 7 6 7 9 9 9 9 8 8 8 7 6 5 4 2 1 1 2 2 3 3 3 3 3 3 3 3
5 4 3 2 4 8 4 2 2 4 7 5 6 6 7 7 6 5 5 7 8 8 8 8 8 7 7 7 6 4 3 2 1 1 1 2 2 3 3 3 3 3 3 3
2 3 3 3 4 6 2 1 0 2 6 2 4 5 5 5 5 5 6 8 8 8 7 7 7 7 6 6 5 4 4 2 1 1 1 1 2 3 3 2 2 2 3 3
3 3 5 6 6 7 2 1 2 4 4 1 4 5 5 5 6 7 7 7 6 7 7 7 6 6 6 6 5 4 4 3 2 2 1 1 1 2 2 2 2 3 3 3
6 5 6 5 6 6 2 3 4 4 3 3 5 5 6 7 7 6 6 6 6 6 6 6 6 6 6 6 5 4 4 4 3 2 2 2 1 1 2 3 2 3 4 4
7 6 4 7 6 2 4 5 5 4 5 5 6 6 6 7 7 6 6 6 6 6 6 5 5 5 6 5 4 3 3 3 3 2 2 2 2 2 2 2 3 3 3 3
5 4 5 7 9 8 8 9 7 6 7 6 6 6 6 6 6 6 5 5 5 5 5 5 5 5 5 5 4 3 3 2 2 2 2 2 2 2 2 2 1 2 2 2
6 7 6 8 9 8 8 8 8 7 6 6 5 6 6 6 6 5 5 5 4 4 4 4 4 4 5 5 5 4 3 2 2 2 1 1 1 1 1 1 1 0 1 2
7 8 7 8 6 6 6 6 6 7 7 6 6 6 5 6 6 5 4 4 3 3 3 3 4 4 4 4 4 4 3 2 1 1 1 0 1 1 1 1 1 2 1 1
Wind_Direction
105 144 190 213 217 232 222 236 242 250 259 261 246 260 278 274 287 295 292 281 275 269 268 271 266 248 224 216 216 214 206 199 191 189 190 189 188 188 188 189 187 187 185 184
136 200 255 247 219 219 223 235 247 261 268 255 257 269 276 269 268 278 295 297 288 289 288 285 276 260 232 220 221 216 206 201 198 196 195 194 188 187 187 185 188 188 187 188
158 271 278 234 213 216 228 227 237 242 276 239 258 260 246 262 262 287 298 298 299 291 280 277 273 265 249 231 226 222 209 201 200 195 186 177 177 179 186 188 188 188 188 189
189 296 256 236 239 240 244 246 246 231 235 241 230 251 243 249 259 279 290 293 299 294 289 282 274 267 254 242 235 229 212 201 200 192 191 189 191 194 200 195 190 187 187 188
213 313 257 248 275 276 268 280 255 223 225 246 238 242 249 234 248 267 278 285 293 294 291 286 277 264 252 245 236 230 210 200 201 199 198 200 202 201 194 188 185 184 183 185
322 308 291 289 295 269 292 245 229 217 221 238 234 231 247 226 240 255 270 285 298 302 299 293 288 275 258 253 241 228 208 202 201 201 201 202 201 197 189 190 188 187 185 184
14 17 360 319 324 28 12 204 208 213 216 233 218 230 243 245 267 266 275 289 305 312 304 300 295 288 275 260 243 226 214 208 204 201 203 204 201 198 195 193 194 191 189 189
359 359 8 351 323 295 277 241 234 238 237 250 231 234 246 262 302 304 300 308 322 322 317 308 298 289 279 264 245 227 220 215 205 203 204 206 201 195 195 197 197 197 195 190
335 313 343 329 318 278 236 216 277 269 270 261 236 249 252 268 315 327 328 333 336 335 331 322 311 300 289 274 253 235 222 215 207 204 198 198 197 195 191 193 195 195 190 183
313 279 313 319 276 43 282 249 230 216 238 250 250 247 244 255 304 325 334 335 336 335 334 330 321 313 306 288 268 247 226 215 209 204 199 197 196 191 184 182 189 186 183 177
299 261 303 309 248 258 197 218 254 238 248 258 256 259 345 274 302 315 328 335 336 334 335 334 329 324 321 318 298 278 246 221 208 204 197 188 184 181 176 179 187 182 177 178
336 283 280 281 285 291 248 247 237 244 249 261 263 274 32 339 344 339 335 339 339 337 336 337 337 336 338 339 334 322 285 241 210 196 190 180 172 171 172 176 182 180 179 183
283 221 277 250 187 186 261 284 266 266 252 248 252 263 31 347 343 343 340 340 340 340 341 345 345 346 345 344 346 341 315 289 225 192 178 170 168 171 174 172 172 173 175 179
263 226 241 255 284 278 272 279 273 252 245 252 253 270 291 314 325 332 335 336 338 341 343 347 346 346 347 347 349 347 338 333 265 175 165 165 168 173 170 167 168 168 170 178
256 241 246 265 274 275 274 276 269 253 250 254 266 274 287 304 312 320 327 333 338 342 344 346 347 346 349 350 348 345 344 344 347 127 135 161 164 161 154 153 158 158 163 173
291 241 256 269 265 274 275 273 266 259 257 254 265 274 291 308 314 321 327 332 337 339 339 341 344 345 346 345 341 339 340 345 4 98 119 138 137 134 140 148 149 148 153 159
212 207 244 270 294 289 268 254 240 246 247 246 256 273 304 306 308 315 321 327 333 334 334 336 336 336 336 334 333 332 332 342 5 76 110 124 125 126 130 136 140 147 152 152
206 205 234 279 293 255 266 122 245 253 256 251 264 282 289 290 294 301 311 325 330 330 329 330 331 331 332 333 338 337 334 343 5 99 121 124 124 122 123 133 141 146 150 152
220 208 219 234 261 274 269 228 232 247 269 253 260 279 296 306 294 290 322 326 322 322 323 324 327 328 330 335 338 339 345 356 25 77 101 115 127 129 132 138 149 152 148 145
170 208 221 223 247 257 282 116 271 250 264 222 253 279 302 305 287 301 326 321 321 325 327 329 330 333 337 338 337 339 348 359 14 18 61 98 124 133 139 148 150 146 141 141
183 200 218 230 245 264 280 212 184 234 289 327 271 277 280 274 282 306 312 315 319 323 328 332 334 336 336 339 342 343 346 351 355 21 54 63 92 122 137 141 141 136 133 132
200 200 207 208 228 254 160 165 218 271 325 287 280 278 271 273 286 297 303 310 317 323 329 334 336 338 340 344 347 348 350 356 10 38 58 66 77 98 121 132 134 139 141 140
217 217 217 213 233 297 194 229 264 283 274 280 280 281 271 273 279 288 295 304 312 321 326 330 334 337 342 350 356 3 359 9 27 49 60 72 80 88 105 122 137 145 150 150
224 215 230 251 258 261 259 260 267 268 271 280 278 273 265 269 276 282 291 301 310 319 324 327 333 339 341 348 356 358 357 13 40 56 55 65 78 78 84 101 130 155 162 163
225 193 223 249 266 277 261 249 257 265 271 278 279 270 261 262 268 273 283 292 301 311 316 321 327 330 334 343 350 354 360 20 41 51 57 69 83 94 88 83 80 163 205 197
206 203 214 243 244 245 268 270 258 253 256 261 265 269 265 258 261 268 274 283 290 298 308 316 323 327 332 340 345 347 351 6 40 51 51 73 115 118 125 113 64 45 54 58
Height
1505 1505 1504 1504 1504 1502 1501 1501 1499 1498 1499 1500 1497 1497 1496 1497 1497 1496 1495 1495 1495 1495 1496 1497 1497 1498 1499 1500 1501 1503 1505 1507 1510 1513 1515 1518 1521 1524 1526 1529 1531 1533 1535 1537
1505 1505 1506 1506 1505 1504 1503 1502 1499 1499 1499 1500 1497 1496 1495 1495 1495 1495 1495 1494 1493 1493 1493 1493 1494 1494 1495 1496 1498 1499 1501 1504 1506 1509 1512 1515 1517 1520 1523 1526 1528 1530 1532 1534
1504 1507 1507 1506 1504 1503 1502 1501 1499 1500 1499 1498 1497 1491 1491 1491 1492 1492 1493 1492 1492 1491 1491 1490 1490 1491 1492 1493 1494 1496 1498 1500 1502 1505 1508 1511 1513 1516 1519 1521 1524 1526 1528 1531
1506 1507 1506 1504 1503 1502 1499 1500 1501 1500 1498 1494 1495 1489 1484 1486 1488 1488 1489 1490 1489 1489 1489 1488 1487 1488 1488 1489 1491 1492 1494 1496 1498 1501 1503 1506 1508 1510 1513 1517 1520 1522 1525 1527
1506 1507 1505 1504 1504 1503 1500 1501 1500 1498 1497 1496 1492 1492 1480 1484 1483 1484 1486 1487 1487 1487 1486 1485 1485 1485 1485 1486 1487 1489 1491 1492 1495 1497 1499 1502 1505 1507 1511 1514 1516 1518 1520 1523
1508 1509 1508 1506 1505 1504 1502 1501 1499 1497 1495 1495 1489 1487 1478 1480 1481 1482 1484 1485 1486 1485 1484 1483 1482 1482 1482 1483 1484 1485 1487 1488 1490 1492 1495 1497 1500 1503 1506 1509 1511 1513 1516 1518
1507 1508 1508 1508 1505 1503 1502 1500 1495 1493 1491 1485 1486 1485 1479 1479 1482 1483 1483 1484 1484 1483 1481 1480 1479 1479 1479 1479 1480 1482 1483 1484 1486 1488 1491 1493 1496 1499 1501 1504 1507 1509 1511 1513
1506 1505 1508 1508 1507 1505 1504 1502 1498 1493 1485 1480 1486 1481 1478 1483 1484 1483 1483 1483 1482 1480 1479 1477 1476 1476 1476 1476 1477 1478 1479 1480 1482 1484 1487 1489 1492 1494 1497 1500 1503 1505 1507 1509
1508 1507 1510 1509 1508 1507 1504 1503 1503 1500 1496 1493 1483 1481 1480 1482 1482 1482 1481 1480 1479 1478 1476 1475 1474 1474 1473 1473 1473 1474 1476 1477 1479 1480 1483 1485 1488 1490 1493 1495 1498 1501 1503 1505
1515 1513 1510 1510 1509 1508 1507 1506 1504 1500 1495 1485 1477 1476 1474 1479 1480 1481 1480 1479 1478 1477 1474 1473 1472 1471 1470 1470 1471 1471 1472 1473 1475 1477 1479 1481 1484 1486 1489 1491 1494 1496 1498 1501
1517 1515 1511 1509 1508 1507 1509 1508 1505 1500 1497 1487 1480 1474 1479 1480 1482 1481 1481 1479 1478 1476 1474 1471 1470 1469 1468 1468 1468 1468 1469 1470 1471 1473 1475 1477 1480 1482 1484 1487 1489 1491 1494 1497
1517 1515 1511 1509 1510 1510 1508 1506 1505 1501 1499 1494 1484 1480 1484 1483 1483 1483 1482 1480 1478 1476 1473 1471 1469 1468 1466 1466 1465 1465 1466 1467 1468 1469 1471 1473 1476 1478 1480 1483 1485 1488 1490 1493
1518 1517 1510 1504 1509 1511 1509 1508 1507 1506 1501 1494 1487 1482 1485 1485 1484 1484 1483 1480 1478 1475 1472 1470 1468 1466 1465 1464 1463 1463 1463 1464 1465 1466 1467 1469 1472 1474 1477 1479 1482 1484 1486 1489
1518 1517 1513 1505 1503 1509 1510 1509 1508 1506 1499 1492 1487 1482 1484 1486 1485 1484 1483 1480 1477 1475 1472 1469 1467 1466 1464 1463 1462 1461 1461 1462 1462 1463 1463 1465 1468 1471 1473 1475 1478 1481 1483 1485
1518 1516 1516 1514 1513 1512 1510 1508 1506 1504 1499 1493 1487 1487 1485 1487 1487 1486 1483 1480 1477 1474 1472 1469 1467 1465 1463 1462 1461 1460 1459 1460 1459 1460 1460 1462 1465 1467 1469 1472 1475 1477 1479 1481
1519 1518 1517 1513 1511 1510 1508 1504 1503 1501 1499 1495 1492 1489 1489 1489 1488 1486 1483 1481 1477 1475 1472 1469 1466 1464 1463 1461 1460 1459 1458 1457 1457 1457 1458 1460 1462 1464 1466 1468 1471 1473 1475 1477
1519 1519 1515 1505 1508 1506 1498 1498 1500 1499 1497 1495 1490 1489 1489 1489 1487 1485 1483 1481 1477 1475 1472 1469 1466 1464 1462 1461 1459 1458 1457 1456 1456 1456 1457 1458 1459 1461 1463 1466 1468 1470 1472 1474
1518 1517 1515 1509 1508 1503 1493 1498 1498 1497 1494 1494 1492 1490 1490 1488 1486 1484 1482 1480 1477 1474 1471 1468 1466 1463 1462 1460 1458 1457 1456 1455 1455 1455 1455 1456 1457 1459 1461 1464 1465 1467 1469 1471
1517 1516 1513 1510 1503 1492 1492 1496 1498 1497 1491 1491 1490 1489 1488 1487 1484 1481 1480 1478 1477 1474 1471 1468 1465 1463 1461 1459 1457 1456 1455 1454 1454 1454 1454 1455 1456 1457 1460 1462 1463 1466 1467 1468
1517 1516 1513 1509 1502 1493 1487 1495 1496 1497 1487 1487 1488 1488 1487 1486 1481 1479 1478 1476 1474 1472 1469 1467 1464 1462 1460 1458 1457 1455 1454 1454 1453 1454 1454 1454 1455 1456 1458 1461 1463 1464 1465 1466
1515 1514 1512 1507 1501 1488 1492 1495 1495 1492 1483 1487 1486 1486 1486 1485 1483 1480 1477 1475 1473 1470 1468 1466 1463 1461 1459 1458 1456 1454 1454 1453 1453 1453 1453 1454 1455 1456 1458 1459 1461 1462 1463 1465
1507 1506 1508 1505 1501 1491 1492 1493 1491 1486 1486 1485 1484 1484 1483 1481 1480 1477 1475 1473 1471 1469 1466 1464 1462 1460 1458 1457 1455 1453 1453 1452 1452 1452 1453 1453 1455 1456 1457 1459 1460 1461 1462 1463
1503 1500 1496 1496 1490 1488 1489 1487 1486 1485 1485 1483 1482 1480 1479 1478 1476 1475 1473 1471 1469 1467 1465 1463 1461 1459 1457 1456 1454 1453 1452 1452 1451 1451 1452 1453 1454 1455 1456 1458 1459 1460 1461 1462
1498 1500 1498 1494 1487 1486 1485 1484 1483 1482 1481 1480 1479 1478 1476 1475 1473 1472 1470 1469 1467 1465 1463 1462 1460 1458 1456 1455 1454 1453 1452 1451 1451 1451 1452 1452 1453 1454 1456 1457 1457 1458 1459 1460
1490 1495 1493 1489 1484 1483 1480 1480 1480 1479 1478 1476 1476 1475 1473 1472 1471 1469 1468 1467 1465 1464 1462 1461 1459 1457 1455 1454 1453 1452 1451 1451 1450 1450 1451 1452 1453 1454 1454 1455 1456 1457 1458 1459
1486 1486 1485 1479 1479 1479 1477 1476 1476 1475 1474 1473 1472 1471 1470 1469 1468 1467 1466 1465 1463 1462 1461 1459 1457 1456 1454 1453 1452 1451 1451 1450 1450 1450 1450 1451 1452 1452 1453 1454 1455 1455 1456 1456